Погода Батамай

Погода Батамай : погода сейчас, прогноз погоды и архив. Всё, что Вы хотите узнать о погоде Батамай!

Поиск расширенной информации на нашем сайте:

Другие новости

Новости СМИ2

Главная страница сайта

Новости сайта

03.07.2017

Напоминаем, что на нашем специализированном сайте Метеоцентр.Азия вы можете получить высокодетализированные автоматические прогнозы погоды по пунктам России, СНГ и мира в авиационном формате (включающие направление и скорость ветра, видимость, явления погоды, количество и форму облачности, нижнюю и верхнюю границу облачности).


Погода Батамай - сегодня

Время (UTC), дата Ветер
(°,м/с) 
Видим.   Явления Облачность Т
(°С)
Тd
(°С)
f(%) Тe
(°С)
Pmin
(гПа)
dP
(гПа)
Po
(мм)
O2
(г/м3)
Тmin Tmax R s Состояние
почвы
12 19.06.18 тихо ()   20000 м    5/3 600 м кучево-дожд., средняя, верхняя 
[Cb cap|Ac trans|Ci fib]
+18.8 +14.1 74 +26  1005.9  -0.6  747  279    +21.4  0.0     
15 19.06.18 тихо ()   20000 м    4/0 средняя, верхняя 
[Ac trans|Ci fib]
+11.4 +7.9 79 +11  1005.6  -0.6  747  288           
18 19.06.18 020 (С) 20000 м    3/0 верхняя 
[Ci fib]
+7 +6.8 99 +8  1005.8  747  292           
21 19.06.18 100 (В) 20000 м    9/8 600 м кучево-дожд., средняя 
[Cb cap|Ac trans]
+12.8 +9.3 79 +14  1005.4  -0.1  747  286           
00 20.06.18 080 (В) 20000 м    10/6 600 м кучево-дожд., средняя, верхняя 
[Cb cap|Ac trans|Ci fib]
+15.7 +9.8 68 +17  1005.2  -0.2  747  283  +6.4        сухая 
03 20.06.18 150 (ЮВ) 20000 м    10/5 600 м кучево-дожд., средняя, верхняя 
[Cb cap|Ac trans|Ci fib]
+19.6 +10.6 56 +22  1004.6  -0.4  746  279           
06 20.06.18 140 (ЮВ) 20000 м    10/5 600 м кучево-дожд., средняя, верхняя 
[Cb cap|Ac trans|Ci fib]
+22.7 +8.7 41 +23  1002.8  -1.6  745  276           
09 20.06.18 140 (ЮВ) 20000 м    8/4 600 м кучево-дожд., средняя, верхняя 
[Cb cap|Ac trans|Ci fib]
+22.7 +8.9 41 +23  1001.8  -1  745  275           
12 20.06.18 080 (В) 20000 м    5/3 1000 м средняя 
[Sc|Ac trans]
+19.1 +9.7 54 +21  1001.9  745  279    +23.4       
15 20.06.18 070 (В) 20000 м    5/3 1000 м средняя 
[Sc|Ac trans]
+16.1 +7.5 57 +16  1002.4  0.3  745  282           
18 20.06.18 050 (СВ) 20000 м    8/0 средняя, верхняя 
[Ac trans|Ci fib]
+13.6 +8 69 +14  1003.1  0.7  745  285           
21 20.06.18 080 (В) 20000 м    10/0 средняя 
[Ac As]
+15 +9.4 69 +17  1004.2  1.1  746  283           
00 21.06.18 060 (СВ) 20000 м    10/0 средняя, верхняя 
[Ac trans|Cs]
+16.6 +10.2 66 +19  1005.1  0.8  747  282  +13        сухая 
03 21.06.18 060 (СВ) 20000 м    10/3 600 м кучево-дожд., средняя, верхняя 
[Cb cap|Ac trans|Cs]
+17.5 +9.7 60 +19  1004.5  -0.4  746  281           
06 21.06.18 250 (З) 20000 м    8/3 600 м кучево-дожд., верхняя 
[Cb cap|Ci fib]
+20.8 +12.3 58 +25  1003.1  -1.3  745  277           
09 21.06.18 тихо ()   20000 м    10/3 600 м кучево-дожд., средняя, верхняя 
[Cb cap|Ac trans|Ci fib]
+20.4 +11.2 55 +23  1002.5  -0.6  745  277           
12 21.06.18 тихо ()   20000 м    10/4 600 м кучево-дожд., средняя, верхняя 
[Cb cap|Ac trans|Ci fib]
+18.7 +12.2 66 +23  1002.7  0.2  745  279    +22       
15 21.06.18 040 (СВ) 20000 м    10/3 600 м кучево-дожд., средняя, верхняя 
[Cb cap|Ac trans|Ci fib]
+16.1 +11.1 72 +20  1003.2  0.3  745  282           
18 21.06.18 тихо ()   20000 м    3/0 средняя 
[Ac trans]
+11.2 +9.6 90 +12  1004.4  1.1  746  287           
21 21.06.18 тихо ()   20000 м    9/0 средняя, верхняя 
[Ac trans|Ci fib]
+13.4 +11.5 88 +17  1005.1  0.7  747  285           
00 22.06.18 тихо ()   20000 м    9/3 600 м кучево-дожд., средняя, верхняя 
[Cb cap|Ac trans|Ci fib]
+16.7 +13.5 81 +23  1004.7  -0.4  746  281  +11.2        сухая 
03 22.06.18 270 (З) 20000 м    10/3 600 м кучево-дожд., средняя, верхняя 
[Cb cap|Ac trans|Cs]
+20.5 +13.6 65 +27  1004.1  -0.3  746  277           
06 22.06.18 300 (СЗ) 20000 м    10/4 600 м кучево-дожд., средняя, верхняя 
[Cb cap|Ac trans|Cs]
+24.3 +10.7 42 +26  1004  746  274           
09 22.06.18 080 (В) 20000 м  слаб. ливневой дождь  10/10 600 м кучево-дожд. 
[Cb cap]
+21.7 +13.8 61 +28  1006.1  1.9  748  276           
15 22.06.18 050 (СВ) 20000 м    9/5 600 м кучево-дожд., средняя, верхняя 
[Cb cap|Ac trans|Ci fib]
+17.1 +13.2 78 +25  1008.8  1.7  749  282           
Время (UTC), дата Ветер
(°,м/с) 
Видим.   Явления Облачность Т
(°С)
Тd
(°С)
f(%) Тe
(°С)
Pmin
(гПа)
dP
(гПа)
Po
(мм)
O2
(г/м3)
Тmin Tmax R s Состояние
почвы

Для получения пояснительной информации подведите курсор к названию столбца.

ПОГОДА Батамай - архив

Всё, что Вы хотите узнать о погоде Батамай - удобно и подробно!

Выберите нужную дату (начиная с 1 января 2015* года) и нажмите кнопку "Найти".
Будут отображены архивные сводки погоды по пункту Батамай, начиная с указанной даты.


Отображать данные в формате CSV (для использования в таблицах Excel)


Внимание! Наш архив погоды предназначен исключительно для личного некоммерческого использования в познавательных целях. Если Вам необходимы официальные справки о состоянии погоды (для производственных, юридических, коммерческих и т.п. целей), обращайтесь в органы Росгидромета.

*Примечание: данная дата относится к архиву по метеостанциям СССР (Россия, СНГ, Балтия).
Архив по метеостанциям Зарубежной Европы и Азии (кроме Китая) хранится 10 дней, по другим регионам земного шара (Китай, Африка, Америка, Австралия, Океания) - 1 день.

Батамай - район местоположения метеостанции


Название, широта, долгота, высота метеостанции:
Батамай 63.5°ш. 129.5°д. 79 м над ур. моря [Российская Федерация]

Дополнительная информация

В oтличие oт бoльшинства пoгoдных сайтoв мы публикуем пoдрoбную метеoинфoрмацию в детальнoм прoфессиoнальнoм фoрмате.

Характеристики температуры и влажнoсти вoздуха измеряются на высoте 2 м в тени вдали oт зданий и деревьев.
Скoрoсть ветра измеряется на высoте 10 м (на урoвне рoста челoвека скoрoсть ветра ниже в 1.5-2 раза). Если метеoстанция нахoдится в гoрoде или в лесу, тo скoрoсть ветра занижена на 2-4 м/с пo сравнению с oткрытым местoм. Скoрoсть ветра над акватoриями крупных рек и oзёр, а также на вершинах хoлмoв на 2-5 м/с выше, чем в oбычных услoвиях.
Атмoсфернoе давление в разных тoчках местнoсти мoжет значительнo oтличаться oт давления на метеoстанции, в зависимoсти oт услoвий рельефа (при пoдъёме на 10 м давление пoнижается примернo на 1 мм рт.ст.).